Location: Newark
(45.8667°N, 9.7333°E)
Time: 03:24:58
(UTC+00:00)

A-11 Canister half - Pass Details

Date: 29 January 2020
Orbit: 1517 x 1683 km, 47.2° (Epoch: 16 February)

Event Time Altitude Azimuth Distance (km) Brightness Sun altitude
Rises 20:47:24 0° 212° (SSW) 4,789 11.7 -45.7°
Enters shadow 20:49:33 - 208° (SSW) 4,138 11.3 -46.0°
Reaches altitude 10° 20:50:45 10° 205° (SSW) 3,782 - -46.2°
Maximum altitude 20:59:27 41° 140° (SE) 2,113 - -47.5°
Drops below altitude 10° 21:07:55 10° 74° (ENE) 3,697 - -48.8°
Sets 21:11:08 0° 68° (ENE) 4,672 - -49.3°
